FCN587 KDTW-MNMG

Flight info

Callsign FCN587
Flight time 4h 18m
Altitude 34000
Route CLVIN3 STAZE DCT OCASE Q65 LORNN/N0454F330 Q65 KERLY/N0453F340 Q65 DOFFY/N0452F350 Q79 VAULT/N0451F340 Q79 MCLAW Y442 FUNDI/N0453F350 UM335 ALVEK UM328 TIBUT RAKEL1B
Aircraft A321/M-SDE3FGHIRWY/LB1

Departure

Time 2026-04-24 22:04
Airport Detroit Metropolitan Wayne County Airport (KDTW)

Arrival

Time 2026-04-25 02:22
Airport Augusto C. Sandino (Managua) International Airport (MNMG)
Time Latitude Longitude Altitude Speed Heading
2026-04-24 21:32 42.21095 -83.35679 650 ft 0 kts 120°
2026-04-24 21:40 42.21095 -83.35680 649 ft 0 kts 120°
2026-04-24 21:41 42.21096 -83.35680 649 ft 0 kts 120°
2026-04-24 21:47 42.21100 -83.35690 649 ft 3 kts 115°
2026-04-24 21:48 42.21107 -83.35716 652 ft 3 kts 98°
2026-04-24 21:48 42.21108 -83.35742 649 ft 3 kts 80°
2026-04-24 21:48 42.21103 -83.35768 653 ft 3 kts 63°
2026-04-24 21:48 42.21092 -83.35791 652 ft 3 kts 51°
2026-04-24 21:49 42.21079 -83.35811 652 ft 3 kts 41°
2026-04-24 21:49 42.21063 -83.35828 651 ft 3 kts 35°
2026-04-24 21:49 42.21046 -83.35843 653 ft 3 kts 32°
2026-04-24 21:49 42.21030 -83.35856 651 ft 3 kts 18°
2026-04-24 21:50 42.21017 -83.35863 650 ft 1 kts 28°
2026-04-24 21:50 42.21016 -83.35863 650 ft 2 kts 28°
2026-04-24 21:50 42.21016 -83.35864 650 ft 0 kts 28°
2026-04-24 21:52 42.21016 -83.35863 650 ft 0 kts 28°
2026-04-24 21:52 42.21035 -83.35848 650 ft 7 kts 25°
2026-04-24 21:52 42.21069 -83.35825 650 ft 3 kts 29°
2026-04-24 21:53 42.21084 -83.35813 651 ft 5 kts 29°
2026-04-24 21:53 42.21110 -83.35793 649 ft 2 kts 29°
2026-04-24 21:53 42.21122 -83.35785 649 ft 7 kts 28°
2026-04-24 21:53 42.21174 -83.35748 650 ft 7 kts 28°
2026-04-24 21:54 42.21200 -83.35728 651 ft 2 kts 30°
2026-04-24 21:54 42.21227 -83.35707 649 ft 11 kts 29°
2026-04-24 21:54 42.21333 -83.35628 650 ft 22 kts 31°
2026-04-24 21:54 42.21450 -83.35541 649 ft 15 kts 27°
2026-04-24 21:55 42.21532 -83.35540 649 ft 9 kts 353°
2026-04-24 21:55 42.21579 -83.35529 649 ft 5 kts 17°
2026-04-24 21:55 42.21597 -83.35520 648 ft 3 kts 19°
2026-04-24 21:55 42.21668 -83.35503 649 ft 16 kts
2026-04-24 21:56 42.21763 -83.35515 647 ft 11 kts 347°
2026-04-24 21:56 42.21802 -83.35549 648 ft 4 kts 312°
2026-04-24 21:56 42.21819 -83.35623 648 ft 12 kts 275°
2026-04-24 21:56 42.21821 -83.35719 648 ft 8 kts 289°
2026-04-24 21:57 42.21850 -83.35745 647 ft 4 kts 349°
2026-04-24 21:57 42.21912 -83.35721 648 ft 10 kts 24°
2026-04-24 21:57 42.21958 -83.35689 648 ft 5 kts 28°
2026-04-24 21:57 42.21994 -83.35662 648 ft 11 kts 28°
2026-04-24 21:58 42.22079 -83.35601 648 ft 13 kts 28°
2026-04-24 21:58 42.22138 -83.35558 649 ft 7 kts 28°
2026-04-24 21:58 42.22186 -83.35523 650 ft 16 kts 28°
2026-04-24 21:58 42.22321 -83.35421 650 ft 25 kts 30°
2026-04-24 21:59 42.22455 -83.35322 650 ft 19 kts 28°
2026-04-24 21:59 42.22559 -83.35246 649 ft 15 kts 28°
2026-04-24 21:59 42.22632 -83.35193 649 ft 9 kts 28°
2026-04-24 21:59 42.22692 -83.35149 649 ft 15 kts 29°
2026-04-24 22:00 42.22801 -83.35066 650 ft 18 kts 29°
2026-04-24 22:00 42.22892 -83.35000 650 ft 12 kts 28°
2026-04-24 22:00 42.22949 -83.34958 650 ft 7 kts 28°
2026-04-24 22:00 42.22990 -83.34929 650 ft 12 kts 27°
2026-04-24 22:01 42.23048 -83.34908 650 ft 0 kts 357°
2026-04-24 22:01 42.23066 -83.34921 650 ft 8 kts 322°
2026-04-24 22:02 42.23089 -83.35003 650 ft 8 kts 261°
2026-04-24 22:02 42.23065 -83.35044 651 ft 3 kts 217°
2026-04-24 22:02 42.23060 -83.35048 650 ft 1 kts 211°
2026-04-24 22:02 42.23046 -83.35059 650 ft 2 kts 209°
2026-04-24 22:03 42.22965 -83.35116 650 ft 41 kts 207°
2026-04-24 22:03 42.22497 -83.35455 652 ft 108 kts 208°
2026-04-24 22:03 42.21669 -83.36059 649 ft 160 kts 207°
2026-04-24 22:03 42.20611 -83.36813 1015 ft 173 kts 206°
2026-04-24 22:04 42.19578 -83.37587 1735 ft 166 kts 211°
2026-04-24 22:04 42.18585 -83.38328 2399 ft 166 kts 212°
2026-04-24 22:04 42.17510 -83.39125 2675 ft 187 kts 212°
2026-04-24 22:04 42.16334 -83.40101 2871 ft 211 kts 222°
2026-04-24 22:05 42.15145 -83.41452 3125 ft 239 kts 220°
2026-04-24 22:05 42.13816 -83.42926 3751 ft 246 kts 221°
2026-04-24 22:05 42.12481 -83.44406 4409 ft 251 kts 221°
2026-04-24 22:05 42.11129 -83.45892 5129 ft 252 kts 221°
2026-04-24 22:06 42.09783 -83.47365 5816 ft 253 kts 221°
2026-04-24 22:06 42.08408 -83.48866 6448 ft 255 kts 221°
2026-04-24 22:06 42.07020 -83.50381 6859 ft 259 kts 221°
2026-04-24 22:06 42.05626 -83.51907 6951 ft 258 kts 221°
2026-04-24 22:07 42.04238 -83.53430 6976 ft 257 kts 221°
2026-04-24 22:07 42.02846 -83.54938 6974 ft 257 kts 218°
2026-04-24 22:07 42.01238 -83.56001 6964 ft 262 kts 198°
2026-04-24 22:07 41.99404 -83.56235 7076 ft 273 kts 178°
2026-04-24 22:08 41.97570 -83.55568 7720 ft 280 kts 163°
2026-04-24 22:08 41.95734 -83.54588 8380 ft 282 kts 163°
2026-04-24 22:08 41.93925 -83.53615 9010 ft 284 kts 163°
2026-04-24 22:08 41.92081 -83.52619 9608 ft 287 kts 163°
2026-04-24 22:09 41.90221 -83.51614 10141 ft 291 kts 163°
2026-04-24 22:09 41.88279 -83.50569 10307 ft 310 kts 163°
2026-04-24 22:09 41.86219 -83.49467 10421 ft 328 kts 163°
2026-04-24 22:09 41.84047 -83.48302 10550 ft 346 kts 162°
2026-04-24 22:10 41.81772 -83.47075 10885 ft 355 kts 162°
2026-04-24 22:10 41.79469 -83.45826 11386 ft 359 kts 162°
2026-04-24 22:10 41.77145 -83.44570 11918 ft 362 kts 162°
2026-04-24 22:10 41.74794 -83.43313 12463 ft 365 kts 163°
2026-04-24 22:11 41.72347 -83.42456 12977 ft 363 kts 175°
2026-04-24 22:11 41.69826 -83.42296 13496 ft 362 kts 187°
2026-04-24 22:11 41.67350 -83.42833 13952 ft 362 kts 198°
2026-04-24 22:11 41.64957 -83.43891 14408 ft 363 kts 201°
2026-04-24 22:12 41.62589 -83.44975 14863 ft 366 kts 201°
2026-04-24 22:12 41.60171 -83.46075 15310 ft 369 kts 201°
2026-04-24 22:12 41.57728 -83.47180 15747 ft 372 kts 201°
2026-04-24 22:12 41.55261 -83.48291 16178 ft 376 kts 201°
2026-04-24 22:13 41.52772 -83.49411 16611 ft 379 kts 201°
2026-04-24 22:13 41.50261 -83.50542 17045 ft 382 kts 201°
2026-04-24 22:13 41.47738 -83.51681 17447 ft 385 kts 201°
2026-04-24 22:13 41.45193 -83.52829 17870 ft 388 kts 201°
2026-04-24 22:14 41.42625 -83.53982 18238 ft 391 kts 201°
2026-04-24 22:14 41.40049 -83.55137 18702 ft 390 kts 201°
2026-04-24 22:14 41.37479 -83.56289 19078 ft 392 kts 201°
2026-04-24 22:14 41.34882 -83.57450 19395 ft 395 kts 201°
2026-04-24 22:15 41.32274 -83.58618 19746 ft 397 kts 201°
2026-04-24 22:15 41.29648 -83.59797 20077 ft 400 kts 201°
2026-04-24 22:15 41.27007 -83.60985 20422 ft 402 kts 201°
2026-04-24 22:15 41.24349 -83.62178 20762 ft 405 kts 201°
2026-04-24 22:16 41.21715 -83.63355 21096 ft 407 kts 201°
2026-04-24 22:16 41.19024 -83.64557 21430 ft 409 kts 201°
2026-04-24 22:16 41.16317 -83.65763 21755 ft 412 kts 201°
2026-04-24 22:16 41.13588 -83.66979 22075 ft 415 kts 201°
2026-04-24 22:17 41.10838 -83.68205 22406 ft 417 kts 201°
2026-04-24 22:17 41.08078 -83.69435 22734 ft 420 kts 201°
2026-04-24 22:17 41.05307 -83.70668 23057 ft 422 kts 201°
2026-04-24 22:17 41.02514 -83.71910 23367 ft 425 kts 201°
2026-04-24 22:18 40.99706 -83.73157 23637 ft 427 kts 201°
2026-04-24 22:18 40.96886 -83.74406 23912 ft 428 kts 201°
2026-04-24 22:18 40.95009 -83.75237 24067 ft 430 kts 200°
2026-04-24 22:18 40.92160 -83.76499 24270 ft 433 kts 201°
2026-04-24 22:19 40.89295 -83.77765 24507 ft 436 kts 200°
2026-04-24 22:19 40.86403 -83.79040 24763 ft 438 kts 200°
2026-04-24 22:19 40.82573 -83.80727 25107 ft 440 kts 201°
2026-04-24 22:19 40.79668 -83.82009 25360 ft 441 kts 200°
2026-04-24 22:20 40.77694 -83.82881 25544 ft 442 kts 201°
2026-04-24 22:20 40.74810 -83.84154 25797 ft 444 kts 201°
2026-04-24 22:20 40.71872 -83.85448 26047 ft 445 kts 200°
2026-04-24 22:20 40.68924 -83.86747 26285 ft 447 kts 200°
2026-04-24 22:21 40.65980 -83.88043 26521 ft 449 kts 201°
2026-04-24 22:21 40.63008 -83.89349 26769 ft 450 kts 201°
2026-04-24 22:21 40.60029 -83.90655 26979 ft 452 kts 201°
2026-04-24 22:21 40.57044 -83.91959 27229 ft 453 kts 200°
2026-04-24 22:22 40.54053 -83.93264 27590 ft 451 kts 200°
2026-04-24 22:22 40.51080 -83.94563 27871 ft 451 kts 201°
2026-04-24 22:22 40.48098 -83.95868 28111 ft 453 kts 201°
2026-04-24 22:22 40.45114 -83.97173 28331 ft 454 kts 200°
2026-04-24 22:23 40.42108 -83.98487 28565 ft 455 kts 200°
2026-04-24 22:23 40.39096 -83.99802 28828 ft 456 kts 200°
2026-04-24 22:23 40.36090 -84.01110 29143 ft 455 kts 200°
2026-04-24 22:23 40.33091 -84.02412 29455 ft 454 kts 200°
2026-04-24 22:24 40.30082 -84.03662 29704 ft 455 kts 197°
2026-04-24 22:24 40.27000 -84.04411 29917 ft 458 kts 188°
2026-04-24 22:24 40.23810 -84.04691 30145 ft 459 kts 186°
2026-04-24 22:24 40.20624 -84.04933 30399 ft 458 kts 186°
2026-04-24 22:25 40.17449 -84.05175 30666 ft 457 kts 186°
2026-04-24 22:25 40.14286 -84.05420 30938 ft 456 kts 186°
2026-04-24 22:25 40.11112 -84.05668 31216 ft 455 kts 186°
2026-04-24 22:25 40.07956 -84.05914 31469 ft 454 kts 186°
2026-04-24 22:26 40.04806 -84.06159 31726 ft 454 kts 186°
2026-04-24 22:26 40.01656 -84.06407 31986 ft 453 kts 186°
2026-04-24 22:26 39.98516 -84.06655 32253 ft 452 kts 186°
2026-04-24 22:26 39.95385 -84.06901 32533 ft 450 kts 186°
2026-04-24 22:27 39.92258 -84.07144 32781 ft 449 kts 187°
2026-04-24 22:27 39.89139 -84.07384 33047 ft 448 kts 187°
2026-04-24 22:27 39.86033 -84.07621 33255 ft 448 kts 187°
2026-04-24 22:27 39.82910 -84.07861 33405 ft 450 kts 187°
2026-04-24 22:28 39.79824 -84.08099 33616 ft 450 kts 187°
2026-04-24 22:28 39.76703 -84.08342 33766 ft 450 kts 187°
2026-04-24 22:28 39.73585 -84.08587 33805 ft 448 kts 187°
2026-04-24 22:29 39.64257 -84.09314 33798 ft 448 kts 187°
2026-04-24 22:29 39.58033 -84.09796 33813 ft 449 kts 187°
2026-04-24 22:30 39.51804 -84.10272 33812 ft 449 kts 187°
2026-04-24 22:30 39.45568 -84.10747 33812 ft 449 kts 187°
2026-04-24 22:31 39.39331 -84.11223 33802 ft 449 kts 187°
2026-04-24 22:31 39.33121 -84.11695 33797 ft 450 kts 187°
2026-04-24 22:32 39.26859 -84.12177 33798 ft 451 kts 187°
2026-04-24 22:32 39.20589 -84.12659 33806 ft 452 kts 187°
2026-04-24 22:33 39.14313 -84.13140 33799 ft 452 kts 187°
2026-04-24 22:33 39.08022 -84.13622 33803 ft 453 kts 187°
2026-04-24 22:34 39.01730 -84.14097 33810 ft 453 kts 187°
2026-04-24 22:34 38.95430 -84.14571 33799 ft 453 kts 187°
2026-04-24 22:35 38.89125 -84.15033 33799 ft 454 kts 186°
2026-04-24 22:35 38.82842 -84.15477 33805 ft 455 kts 186°
2026-04-24 22:36 38.76521 -84.15915 33812 ft 456 kts 186°
2026-04-24 22:36 38.70186 -84.16367 33803 ft 456 kts 186°
2026-04-24 22:37 38.63849 -84.16816 33812 ft 457 kts 186°
2026-04-24 22:37 38.57494 -84.17266 33816 ft 457 kts 186°
2026-04-24 22:38 38.51144 -84.17703 33820 ft 457 kts 186°
2026-04-24 22:38 38.44783 -84.18136 33810 ft 458 kts 186°
2026-04-24 22:39 38.38422 -84.18584 33815 ft 458 kts 186°
2026-04-24 22:39 38.32094 -84.19048 33831 ft 459 kts 186°
2026-04-24 22:40 38.25722 -84.19518 33845 ft 459 kts 186°
2026-04-24 22:40 38.19345 -84.19982 33859 ft 459 kts 186°
2026-04-24 22:41 38.12971 -84.20446 33869 ft 459 kts 186°
2026-04-24 22:41 38.06592 -84.20900 33873 ft 459 kts 186°
2026-04-24 22:42 38.00208 -84.21351 33862 ft 460 kts 186°
2026-04-24 22:42 37.93814 -84.21817 33851 ft 460 kts 186°
2026-04-24 22:43 37.87464 -84.22279 33864 ft 460 kts 186°
2026-04-24 22:43 37.81065 -84.22730 33869 ft 460 kts 186°
2026-04-24 22:44 37.74670 -84.23194 33871 ft 461 kts 186°
2026-04-24 22:44 37.68258 -84.23647 33879 ft 462 kts 186°
2026-04-24 22:45 37.61842 -84.24098 33885 ft 462 kts 186°
2026-04-24 22:45 37.55419 -84.24554 33873 ft 463 kts 186°
2026-04-24 22:46 37.48980 -84.25001 33871 ft 464 kts 184°
2026-04-24 22:46 37.42512 -84.24696 33869 ft 466 kts 180°
2026-04-24 22:47 37.36072 -84.24310 33865 ft 466 kts 180°
2026-04-24 22:47 37.29585 -84.23922 33855 ft 467 kts 179°
2026-04-24 22:48 37.23087 -84.23519 33875 ft 468 kts 179°
2026-04-24 22:48 37.16579 -84.23124 33885 ft 468 kts 179°
2026-04-24 22:49 37.10066 -84.22731 33889 ft 469 kts 179°
2026-04-24 22:49 37.03592 -84.22332 33886 ft 469 kts 179°
2026-04-24 22:50 36.97069 -84.21942 33889 ft 470 kts 179°
2026-04-24 22:50 36.90541 -84.21562 33901 ft 470 kts 179°
2026-04-24 22:51 36.84009 -84.21179 33898 ft 470 kts 179°
2026-04-24 22:51 36.77484 -84.20781 33893 ft 471 kts 179°
2026-04-24 22:52 36.70933 -84.20377 33893 ft 471 kts 179°
2026-04-24 22:52 36.64381 -84.19988 33895 ft 472 kts 179°
2026-04-24 22:53 36.57826 -84.19599 33883 ft 471 kts 179°
2026-04-24 22:53 36.51318 -84.19259 33889 ft 472 kts 181°
2026-04-24 22:54 36.44764 -84.19422 33896 ft 470 kts 185°
2026-04-24 22:54 36.38232 -84.19848 33897 ft 470 kts 185°
2026-04-24 22:55 36.31690 -84.20200 33887 ft 470 kts 184°
2026-04-24 22:55 36.25144 -84.20446 33889 ft 471 kts 183°
2026-04-24 22:56 36.18593 -84.20673 33887 ft 471 kts 184°
2026-04-24 22:56 36.12043 -84.20922 33882 ft 470 kts 184°
2026-04-24 22:57 36.05497 -84.21173 33880 ft 471 kts 183°
2026-04-24 22:57 35.98991 -84.21423 33884 ft 471 kts 183°
2026-04-24 22:58 35.92444 -84.21681 33885 ft 471 kts 183°
2026-04-24 22:58 35.85902 -84.21939 33882 ft 470 kts 183°
2026-04-24 22:59 35.79356 -84.22200 33892 ft 471 kts 183°
2026-04-24 23:00 35.69541 -84.22571 33888 ft 470 kts 183°
2026-04-24 23:00 35.62994 -84.22816 33884 ft 471 kts 183°
2026-04-24 23:01 35.56456 -84.23056 33892 ft 470 kts 183°
2026-04-24 23:01 35.49959 -84.23308 33881 ft 470 kts 183°
2026-04-24 23:02 35.43420 -84.23568 33883 ft 470 kts 183°
2026-04-24 23:02 35.36878 -84.23513 33887 ft 471 kts 173°
2026-04-24 23:03 35.30612 -84.21351 33906 ft 469 kts 156°
2026-04-24 23:03 35.24616 -84.18177 33913 ft 469 kts 156°
2026-04-24 23:04 35.18653 -84.15044 33922 ft 469 kts 156°
2026-04-24 23:04 35.12643 -84.11907 33916 ft 470 kts 156°
2026-04-24 23:05 35.06628 -84.08781 33933 ft 470 kts 156°
2026-04-24 23:05 35.00620 -84.05648 33959 ft 469 kts 156°
2026-04-24 23:06 34.94624 -84.02517 33982 ft 469 kts 156°
2026-04-24 23:06 34.88619 -83.99401 33969 ft 469 kts 156°
2026-04-24 23:07 34.82616 -83.96290 33987 ft 469 kts 156°
2026-04-24 23:07 34.76616 -83.93186 33984 ft 468 kts 156°
2026-04-24 23:08 34.70620 -83.90083 33962 ft 469 kts 156°
2026-04-24 23:08 34.64608 -83.86980 33927 ft 470 kts 156°
2026-04-24 23:09 34.58677 -83.83770 33909 ft 471 kts 153°
2026-04-24 23:09 34.52833 -83.80176 33921 ft 471 kts 151°
2026-04-24 23:10 34.47009 -83.76517 33921 ft 471 kts 152°
2026-04-24 23:10 34.41151 -83.72941 33941 ft 472 kts 152°
2026-04-24 23:11 34.35261 -83.69431 33952 ft 472 kts 153°
2026-04-24 23:11 34.29366 -83.65925 33935 ft 472 kts 152°
2026-04-24 23:12 34.23493 -83.62405 33946 ft 471 kts 152°
2026-04-24 23:12 34.17658 -83.58898 33954 ft 471 kts 152°
2026-04-24 23:13 34.11789 -83.55384 33955 ft 471 kts 152°
2026-04-24 23:13 34.05924 -83.51881 33949 ft 470 kts 152°
2026-04-24 23:14 34.00049 -83.48388 33952 ft 470 kts 153°
2026-04-24 23:14 33.94194 -83.44902 33950 ft 470 kts 153°
2026-04-24 23:15 33.88336 -83.41418 33943 ft 469 kts 153°
2026-04-24 23:15 33.82477 -83.37941 33931 ft 469 kts 153°
2026-04-24 23:16 33.76615 -83.34472 33933 ft 469 kts 153°
2026-04-24 23:16 33.70759 -83.31019 33942 ft 469 kts 153°
2026-04-24 23:17 33.64950 -83.27590 33945 ft 468 kts 153°
2026-04-24 23:17 33.59111 -83.24142 33943 ft 468 kts 153°
2026-04-24 23:18 33.53271 -83.20702 33947 ft 468 kts 153°
2026-04-24 23:18 33.47432 -83.17267 33936 ft 467 kts 153°
2026-04-24 23:19 33.41592 -83.13846 33947 ft 467 kts 154°
2026-04-24 23:19 33.35766 -83.10438 33932 ft 466 kts 154°
2026-04-24 23:20 33.29944 -83.07034 33924 ft 465 kts 154°
2026-04-24 23:20 33.24171 -83.03659 33931 ft 465 kts 154°
2026-04-24 23:21 33.18357 -83.00267 33928 ft 465 kts 154°
2026-04-24 23:21 33.12544 -82.96881 33923 ft 465 kts 154°
2026-04-24 23:22 33.06726 -82.93498 33930 ft 465 kts 154°
2026-04-24 23:22 33.00920 -82.90122 33925 ft 465 kts 154°
2026-04-24 23:23 32.95103 -82.86749 33918 ft 465 kts 154°
2026-04-24 23:23 32.89330 -82.83406 33918 ft 464 kts 154°
2026-04-24 23:24 32.83526 -82.80051 33924 ft 464 kts 154°
2026-04-24 23:24 32.77722 -82.76702 33922 ft 464 kts 155°
2026-04-24 23:25 32.71918 -82.73359 33933 ft 463 kts 154°
2026-04-24 23:25 32.66120 -82.70020 33928 ft 463 kts 155°
2026-04-24 23:26 32.60329 -82.66691 33923 ft 462 kts 155°
2026-04-24 23:26 32.54542 -82.63370 33921 ft 462 kts 155°
2026-04-24 23:27 32.48798 -82.60076 33922 ft 462 kts 155°
2026-04-24 23:27 32.43014 -82.56759 33926 ft 462 kts 155°
2026-04-24 23:28 32.37235 -82.53456 33924 ft 461 kts 155°
2026-04-24 23:28 32.31446 -82.50160 33923 ft 461 kts 155°
2026-04-24 23:29 32.25671 -82.46870 33924 ft 461 kts 155°
2026-04-24 23:29 32.19889 -82.43580 33917 ft 461 kts 155°
2026-04-24 23:30 32.14150 -82.40313 33928 ft 461 kts 155°
2026-04-24 23:30 32.08190 -82.37623 33920 ft 458 kts 169°
2026-04-24 23:31 32.01896 -82.37106 33925 ft 453 kts 184°
2026-04-24 23:31 31.95590 -82.37431 33927 ft 453 kts 184°
2026-04-24 23:32 31.90353 -82.37688 33922 ft 453 kts 184°
2026-04-24 23:32 31.84053 -82.37993 33921 ft 453 kts 184°
2026-04-24 23:33 31.76725 -82.38361 33916 ft 453 kts 184°
2026-04-24 23:33 31.71445 -82.38629 33922 ft 453 kts 184°
2026-04-24 23:34 31.65180 -82.38939 33920 ft 453 kts 184°
2026-04-24 23:34 31.58875 -82.39243 33918 ft 453 kts 184°
2026-04-24 23:35 31.52572 -82.39549 33912 ft 454 kts 184°
2026-04-24 23:35 31.46261 -82.39866 33916 ft 454 kts 184°
2026-04-24 23:36 31.39942 -82.40183 33913 ft 455 kts 184°
2026-04-24 23:36 31.33618 -82.40495 33909 ft 455 kts 184°
2026-04-24 23:37 31.27288 -82.40813 33903 ft 456 kts 184°
2026-04-24 23:37 31.17819 -82.41281 33912 ft 457 kts 184°
2026-04-24 23:38 31.11468 -82.41588 33919 ft 457 kts 184°
2026-04-24 23:38 31.05106 -82.41899 33927 ft 457 kts 184°
2026-04-24 23:39 30.98740 -82.42204 33930 ft 458 kts 185°
2026-04-24 23:39 30.92384 -82.42511 33948 ft 458 kts 185°
2026-04-24 23:40 30.86013 -82.42823 33949 ft 458 kts 185°
2026-04-24 23:40 30.79646 -82.43134 33954 ft 458 kts 185°
2026-04-24 23:41 30.73280 -82.43448 33934 ft 458 kts 185°
2026-04-24 23:41 30.66919 -82.43893 33929 ft 457 kts 188°
2026-04-24 23:42 30.60605 -82.44776 33932 ft 457 kts 191°
2026-04-24 23:42 30.54341 -82.45778 33934 ft 458 kts 191°
2026-04-24 23:43 30.48017 -82.46694 33937 ft 458 kts 189°
2026-04-24 23:43 30.41685 -82.47534 33939 ft 458 kts 189°
2026-04-24 23:44 30.35347 -82.48371 33946 ft 458 kts 189°
2026-04-24 23:44 30.29011 -82.49231 33953 ft 458 kts 189°
2026-04-24 23:45 30.22678 -82.50103 33945 ft 458 kts 189°
2026-04-24 23:45 30.16320 -82.50738 33929 ft 461 kts 185°
2026-04-24 23:46 30.09941 -82.50872 33929 ft 462 kts 185°
2026-04-24 23:46 30.03503 -82.51023 33944 ft 463 kts 185°
2026-04-24 23:47 29.97058 -82.51162 33947 ft 464 kts 185°
2026-04-24 23:47 29.90601 -82.51302 33958 ft 464 kts 185°
2026-04-24 23:48 29.84139 -82.51451 33959 ft 465 kts 185°
2026-04-24 23:48 29.77670 -82.51600 33963 ft 465 kts 185°
2026-04-24 23:49 29.71198 -82.51739 33962 ft 466 kts 185°
2026-04-24 23:49 29.64761 -82.51872 33967 ft 466 kts 185°
2026-04-24 23:50 29.58283 -82.52013 33958 ft 466 kts 185°
2026-04-24 23:50 29.51796 -82.52163 33963 ft 466 kts 185°
2026-04-24 23:51 29.45300 -82.52309 33965 ft 467 kts 185°
2026-04-24 23:51 29.38807 -82.52452 33973 ft 467 kts 185°
2026-04-24 23:52 29.32311 -82.52586 33958 ft 467 kts 185°
2026-04-24 23:52 29.25852 -82.52644 33966 ft 470 kts 180°
2026-04-24 23:53 29.19347 -82.51577 33968 ft 473 kts 175°
2026-04-24 23:53 29.12845 -82.50397 33971 ft 473 kts 175°
2026-04-24 23:54 29.06343 -82.49222 33967 ft 473 kts 175°
2026-04-24 23:54 28.99836 -82.48043 33954 ft 473 kts 175°
2026-04-24 23:55 28.93331 -82.46867 33965 ft 473 kts 175°
2026-04-24 23:55 28.86829 -82.45697 33968 ft 473 kts 175°
2026-04-24 23:56 28.80320 -82.44519 33971 ft 474 kts 175°
2026-04-24 23:56 28.73850 -82.43356 33958 ft 474 kts 175°
2026-04-24 23:57 28.67342 -82.42189 33969 ft 474 kts 175°
2026-04-24 23:57 28.60835 -82.41015 33964 ft 473 kts 175°
2026-04-24 23:58 28.54335 -82.39849 33975 ft 473 kts 175°
2026-04-24 23:58 28.47827 -82.38683 33970 ft 473 kts 175°
2026-04-24 23:59 28.41319 -82.37510 33952 ft 474 kts 175°
2026-04-24 23:59 28.34804 -82.36343 33957 ft 474 kts 175°
2026-04-25 00:00 28.28281 -82.35181 33964 ft 475 kts 175°
2026-04-25 00:00 28.21788 -82.34020 33971 ft 475 kts 175°
2026-04-25 00:01 28.15262 -82.32853 33965 ft 475 kts 175°
2026-04-25 00:01 28.08720 -82.31692 33957 ft 476 kts 175°
2026-04-25 00:02 28.02185 -82.30364 34219 ft 481 kts 167°
2026-04-25 00:02 27.98976 -82.29266 34422 ft 482 kts 167°
2026-04-25 00:02 27.95770 -82.28159 34632 ft 482 kts 167°
2026-04-25 00:03 27.92565 -82.27057 34845 ft 482 kts 167°
2026-04-25 00:03 27.89348 -82.25955 34958 ft 484 kts 167°
2026-04-25 00:03 27.82832 -82.23736 34960 ft 493 kts 167°
2026-04-25 00:04 27.76230 -82.21483 34970 ft 497 kts 167°
2026-04-25 00:04 27.69613 -82.19217 34970 ft 497 kts 167°
2026-04-25 00:05 27.62984 -82.16959 34970 ft 497 kts 167°
2026-04-25 00:05 27.56358 -82.14707 34973 ft 497 kts 167°
2026-04-25 00:06 27.49734 -82.12458 34976 ft 498 kts 167°
2026-04-25 00:06 27.43144 -82.10221 34974 ft 498 kts 167°
2026-04-25 00:07 27.36516 -82.07978 34974 ft 498 kts 167°
2026-04-25 00:07 27.29881 -82.05733 34973 ft 498 kts 167°
2026-04-25 00:08 27.23254 -82.03489 34959 ft 498 kts 167°
2026-04-25 00:08 27.16621 -82.01247 34954 ft 498 kts 167°
2026-04-25 00:09 27.09979 -81.99008 34953 ft 499 kts 167°
2026-04-25 00:09 27.03493 -81.96135 34956 ft 504 kts 157°
2026-04-25 00:10 26.97199 -81.92662 34960 ft 505 kts 157°
2026-04-25 00:10 26.90923 -81.89220 34937 ft 506 kts 158°
2026-04-25 00:11 26.84594 -81.85760 34946 ft 507 kts 158°
2026-04-25 00:11 26.78247 -81.82289 34954 ft 508 kts 158°
2026-04-25 00:12 26.71903 -81.78821 34956 ft 508 kts 158°
2026-04-25 00:12 26.65543 -81.75347 34967 ft 508 kts 158°
2026-04-25 00:13 26.59188 -81.71878 34934 ft 509 kts 158°
2026-04-25 00:13 26.52849 -81.68418 34936 ft 510 kts 158°
2026-04-25 00:14 26.46461 -81.64941 34950 ft 511 kts 158°
2026-04-25 00:14 26.40083 -81.61475 34964 ft 510 kts 158°
2026-04-25 00:15 26.33702 -81.58019 34966 ft 509 kts 158°
2026-04-25 00:15 26.27325 -81.54570 34942 ft 510 kts 158°
2026-04-25 00:16 26.20944 -81.51123 34942 ft 510 kts 158°
2026-04-25 00:16 26.14549 -81.47661 34947 ft 511 kts 158°
2026-04-25 00:17 26.08065 -81.44702 34947 ft 505 kts 168°
2026-04-25 00:17 26.01338 -81.42453 34950 ft 505 kts 168°
2026-04-25 00:18 25.94599 -81.40193 34929 ft 506 kts 168°
2026-04-25 00:18 25.87860 -81.37929 34938 ft 507 kts 168°
2026-04-25 00:19 25.81098 -81.35658 34938 ft 508 kts 168°
2026-04-25 00:19 25.74332 -81.33395 34946 ft 508 kts 168°
2026-04-25 00:20 25.67560 -81.31135 34924 ft 509 kts 168°
2026-04-25 00:20 25.60778 -81.28866 34932 ft 509 kts 169°
2026-04-25 00:21 25.53982 -81.26597 34960 ft 510 kts 168°
2026-04-25 00:21 25.47196 -81.24334 34963 ft 510 kts 168°
2026-04-25 00:22 25.40441 -81.22089 34964 ft 510 kts 168°
2026-04-25 00:22 25.33654 -81.19831 34946 ft 510 kts 169°
2026-04-25 00:23 25.26856 -81.17566 34951 ft 510 kts 169°
2026-04-25 00:23 25.20055 -81.15310 34955 ft 511 kts 169°
2026-04-25 00:24 25.13241 -81.13061 34957 ft 511 kts 169°
2026-04-25 00:24 25.06436 -81.10815 34958 ft 511 kts 169°
2026-04-25 00:25 24.99617 -81.08560 34929 ft 511 kts 169°
2026-04-25 00:25 24.92804 -81.06307 34950 ft 512 kts 169°
2026-04-25 00:26 24.85977 -81.04050 34943 ft 512 kts 169°
2026-04-25 00:26 24.79190 -81.01855 34947 ft 510 kts 173°
2026-04-25 00:27 24.72276 -81.01088 34922 ft 492 kts 190°
2026-04-25 00:27 24.65430 -81.01367 34932 ft 493 kts 189°
2026-04-25 00:28 24.58560 -81.01601 34930 ft 494 kts 189°
2026-04-25 00:28 24.51677 -81.01740 34940 ft 496 kts 187°
2026-04-25 00:29 24.44756 -81.01643 34947 ft 498 kts 186°
2026-04-25 00:29 24.37833 -81.01505 34949 ft 497 kts 186°
2026-04-25 00:30 24.30915 -81.01423 34955 ft 497 kts 187°
2026-04-25 00:30 24.24002 -81.01381 34963 ft 497 kts 187°
2026-04-25 00:31 24.17128 -81.01346 34965 ft 497 kts 187°
2026-04-25 00:31 24.10207 -81.01295 34944 ft 497 kts 187°
2026-04-25 00:32 24.03280 -81.01234 34953 ft 498 kts 187°
2026-04-25 00:32 23.97525 -81.01150 34959 ft 499 kts 186°
2026-04-25 00:33 23.89402 -81.00819 34965 ft 500 kts 184°
2026-04-25 00:33 23.82456 -81.00458 34965 ft 500 kts 185°
2026-04-25 00:34 23.75559 -81.00132 34931 ft 499 kts 185°
2026-04-25 00:34 23.68612 -80.99846 34938 ft 499 kts 185°
2026-04-25 00:35 23.61660 -80.99576 34945 ft 500 kts 185°
2026-04-25 00:35 23.54706 -80.99287 34955 ft 501 kts 185°
2026-04-25 00:36 23.47743 -80.98989 34932 ft 501 kts 185°
2026-04-25 00:36 23.40819 -80.98695 34939 ft 501 kts 185°
2026-04-25 00:37 23.33855 -80.98405 34940 ft 501 kts 185°
2026-04-25 00:37 23.26875 -80.98111 34954 ft 502 kts 185°
2026-04-25 00:38 23.19894 -80.97818 34957 ft 502 kts 185°
2026-04-25 00:38 23.12911 -80.97523 34951 ft 502 kts 185°
2026-04-25 00:39 23.05967 -80.97242 34954 ft 501 kts 187°
2026-04-25 00:39 22.99223 -80.98244 34957 ft 481 kts 205°
2026-04-25 00:40 22.92995 -81.00696 34953 ft 476 kts 209°
2026-04-25 00:40 22.86788 -81.03184 34954 ft 476 kts 208°
2026-04-25 00:41 22.80566 -81.05666 34930 ft 477 kts 208°
2026-04-25 00:41 22.74329 -81.08149 34938 ft 478 kts 208°
2026-04-25 00:42 22.68123 -81.10627 34950 ft 479 kts 208°
2026-04-25 00:42 22.61877 -81.13123 34957 ft 479 kts 208°
2026-04-25 00:43 22.55620 -81.15616 34959 ft 479 kts 208°
2026-04-25 00:43 22.49371 -81.18109 34939 ft 479 kts 208°
2026-04-25 00:44 22.44170 -81.20183 34938 ft 480 kts 208°
2026-04-25 00:44 22.36887 -81.23081 34939 ft 480 kts 208°
2026-04-25 00:45 22.30625 -81.25572 34940 ft 480 kts 208°
2026-04-25 00:45 22.25375 -81.27654 34936 ft 480 kts 208°
2026-04-25 00:46 22.19144 -81.30121 34909 ft 480 kts 209°
2026-04-25 00:47 22.09728 -81.33852 34924 ft 481 kts 209°
2026-04-25 00:47 22.03428 -81.36340 34933 ft 482 kts 208°
2026-04-25 00:48 21.97128 -81.38829 34942 ft 482 kts 208°
2026-04-25 00:48 21.90863 -81.41307 34946 ft 483 kts 209°
2026-04-25 00:49 21.84553 -81.43798 34927 ft 483 kts 208°
2026-04-25 00:49 21.78232 -81.46295 34940 ft 484 kts 208°
2026-04-25 00:50 21.71912 -81.48785 34947 ft 484 kts 208°
2026-04-25 00:50 21.65585 -81.51269 34951 ft 484 kts 208°
2026-04-25 00:51 21.59362 -81.53930 34948 ft 474 kts 217°
2026-04-25 00:51 21.53602 -81.57334 34923 ft 473 kts 218°
2026-04-25 00:52 21.47878 -81.60724 34938 ft 473 kts 217°
2026-04-25 00:52 21.42110 -81.64129 34939 ft 474 kts 217°
2026-04-25 00:53 21.36332 -81.67530 34928 ft 474 kts 217°
2026-04-25 00:53 21.30551 -81.70933 34931 ft 474 kts 217°
2026-04-25 00:54 21.24767 -81.74324 34938 ft 474 kts 217°
2026-04-25 00:54 21.18979 -81.77725 34939 ft 474 kts 217°
2026-04-25 00:55 21.13197 -81.81124 34941 ft 474 kts 217°
2026-04-25 00:55 21.07405 -81.84522 34944 ft 474 kts 218°
2026-04-25 00:56 21.01619 -81.87914 34946 ft 474 kts 218°
2026-04-25 00:56 20.95870 -81.91287 34946 ft 474 kts 217°
2026-04-25 00:57 20.90071 -81.94669 34924 ft 474 kts 217°
2026-04-25 00:57 20.84282 -81.98049 34931 ft 474 kts 217°
2026-04-25 00:58 20.78492 -82.01444 34934 ft 474 kts 217°
2026-04-25 00:58 20.72706 -82.04825 34936 ft 474 kts 217°
2026-04-25 00:59 20.66915 -82.08197 34940 ft 474 kts 217°
2026-04-25 00:59 20.61128 -82.11569 34913 ft 474 kts 217°
2026-04-25 01:00 20.55335 -82.14943 34920 ft 474 kts 217°
2026-04-25 01:00 20.49588 -82.18287 34919 ft 474 kts 217°
2026-04-25 01:01 20.43794 -82.21658 34922 ft 474 kts 217°
2026-04-25 01:01 20.37999 -82.25013 34926 ft 474 kts 217°
2026-04-25 01:02 20.32203 -82.28365 34932 ft 474 kts 217°
2026-04-25 01:02 20.26418 -82.31727 34905 ft 474 kts 217°
2026-04-25 01:03 20.20628 -82.35089 34910 ft 474 kts 217°
2026-04-25 01:03 20.14873 -82.38429 34914 ft 474 kts 217°
2026-04-25 01:04 20.09061 -82.41771 34905 ft 475 kts 216°
2026-04-25 01:04 20.03105 -82.44895 34911 ft 479 kts 213°
2026-04-25 01:05 19.97031 -82.47834 34885 ft 480 kts 212°
2026-04-25 01:05 19.90953 -82.50795 34904 ft 480 kts 213°
2026-04-25 01:06 19.84908 -82.53824 34911 ft 480 kts 213°
2026-04-25 01:06 19.78876 -82.56869 34914 ft 480 kts 213°
2026-04-25 01:07 19.72879 -82.59890 34913 ft 481 kts 213°
2026-04-25 01:07 19.66822 -82.62915 34918 ft 481 kts 213°
2026-04-25 01:08 19.60760 -82.65925 34902 ft 481 kts 213°
2026-04-25 01:08 19.54692 -82.68951 34911 ft 482 kts 213°
2026-04-25 01:09 19.48630 -82.71979 34915 ft 482 kts 213°
2026-04-25 01:09 19.42567 -82.75006 34918 ft 482 kts 213°
2026-04-25 01:10 19.36535 -82.78010 34923 ft 482 kts 213°
2026-04-25 01:10 19.30457 -82.81034 34899 ft 483 kts 212°
2026-04-25 01:11 19.24373 -82.84050 34906 ft 483 kts 212°
2026-04-25 01:11 19.18288 -82.87072 34914 ft 483 kts 212°
2026-04-25 01:12 19.12201 -82.90099 34928 ft 484 kts 212°
2026-04-25 01:12 19.06143 -82.93100 34933 ft 484 kts 212°
2026-04-25 01:13 19.00042 -82.96110 34935 ft 484 kts 212°
2026-04-25 01:13 18.93948 -82.99122 34913 ft 483 kts 212°
2026-04-25 01:14 18.87861 -83.02147 34921 ft 483 kts 212°
2026-04-25 01:14 18.81776 -83.05162 34925 ft 483 kts 212°
2026-04-25 01:15 18.75684 -83.08162 34923 ft 483 kts 212°
2026-04-25 01:15 18.69601 -83.11160 34921 ft 482 kts 212°
2026-04-25 01:16 18.63568 -83.14140 34895 ft 482 kts 211°
2026-04-25 01:16 18.57499 -83.17129 34899 ft 481 kts 211°
2026-04-25 01:17 18.51425 -83.20120 34904 ft 482 kts 211°
2026-04-25 01:17 18.45352 -83.23101 34909 ft 482 kts 211°
2026-04-25 01:18 18.39282 -83.26091 34911 ft 481 kts 211°
2026-04-25 01:18 18.33216 -83.29077 34913 ft 481 kts 211°
2026-04-25 01:19 18.27180 -83.32037 34903 ft 481 kts 211°
2026-04-25 01:19 18.21123 -83.35001 34913 ft 480 kts 211°
2026-04-25 01:20 18.15062 -83.37970 34915 ft 480 kts 211°
2026-04-25 01:20 18.09008 -83.40934 34917 ft 480 kts 211°
2026-04-25 01:21 18.02960 -83.43896 34916 ft 480 kts 211°
2026-04-25 01:21 17.96905 -83.46855 34912 ft 479 kts 211°
2026-04-25 01:22 17.90856 -83.49807 34908 ft 479 kts 211°
2026-04-25 01:22 17.84851 -83.52735 34908 ft 479 kts 211°
2026-04-25 01:23 17.78806 -83.55686 34900 ft 480 kts 211°
2026-04-25 01:23 17.72752 -83.58643 34898 ft 480 kts 211°
2026-04-25 01:24 17.66701 -83.61601 34902 ft 481 kts 211°
2026-04-25 01:24 17.60631 -83.64550 34890 ft 480 kts 210°
2026-04-25 01:25 17.54569 -83.67491 34906 ft 480 kts 210°
2026-04-25 01:25 17.48505 -83.70437 34907 ft 480 kts 210°
2026-04-25 01:26 17.42490 -83.73356 34909 ft 480 kts 210°
2026-04-25 01:26 17.36435 -83.76292 34909 ft 480 kts 210°
2026-04-25 01:27 17.30380 -83.79224 34905 ft 479 kts 210°
2026-04-25 01:27 17.24331 -83.82155 34896 ft 479 kts 210°
2026-04-25 01:28 17.15265 -83.86543 34900 ft 479 kts 210°
2026-04-25 01:28 17.09265 -83.89449 34901 ft 478 kts 210°
2026-04-25 01:29 17.03229 -83.92376 34896 ft 478 kts 210°
2026-04-25 01:29 16.97196 -83.95294 34895 ft 478 kts 210°
2026-04-25 01:30 16.91156 -83.98200 34879 ft 478 kts 209°
2026-04-25 01:30 16.85104 -84.01097 34887 ft 478 kts 209°
2026-04-25 01:31 16.79058 -84.03996 34892 ft 478 kts 209°
2026-04-25 01:31 16.73054 -84.06886 34895 ft 478 kts 209°
2026-04-25 01:32 16.67004 -84.09779 34893 ft 478 kts 209°
2026-04-25 01:32 16.60952 -84.12671 34886 ft 478 kts 209°
2026-04-25 01:33 16.54899 -84.15555 34891 ft 478 kts 208°
2026-04-25 01:33 16.48848 -84.18448 34893 ft 478 kts 209°
2026-04-25 01:34 16.42800 -84.21338 34897 ft 478 kts 208°
2026-04-25 01:34 16.36754 -84.24229 34894 ft 478 kts 208°
2026-04-25 01:35 16.30741 -84.27095 34893 ft 478 kts 208°
2026-04-25 01:35 16.24692 -84.29980 34879 ft 478 kts 208°
2026-04-25 01:36 16.18644 -84.32853 34882 ft 478 kts 208°
2026-04-25 01:36 16.12596 -84.35731 34885 ft 478 kts 208°
2026-04-25 01:37 16.06547 -84.38607 34891 ft 478 kts 208°
2026-04-25 01:37 16.00498 -84.41483 34890 ft 478 kts 208°
2026-04-25 01:38 15.94452 -84.44353 34891 ft 478 kts 208°
2026-04-25 01:38 15.88400 -84.47222 34885 ft 478 kts 208°
2026-04-25 01:39 15.82397 -84.50070 34890 ft 478 kts 208°
2026-04-25 01:39 15.76345 -84.52937 34888 ft 478 kts 208°
2026-04-25 01:40 15.70303 -84.55800 34884 ft 478 kts 208°
2026-04-25 01:40 15.64257 -84.58667 34886 ft 478 kts 208°
2026-04-25 01:41 15.58208 -84.61528 34888 ft 478 kts 207°
2026-04-25 01:41 15.52155 -84.64383 34883 ft 478 kts 207°
2026-04-25 01:42 15.46108 -84.67241 34889 ft 478 kts 207°
2026-04-25 01:42 15.40101 -84.70081 34892 ft 478 kts 207°
2026-04-25 01:43 15.34046 -84.72935 34895 ft 478 kts 207°
2026-04-25 01:43 15.27993 -84.75793 34896 ft 478 kts 207°
2026-04-25 01:44 15.21940 -84.78652 34887 ft 478 kts 207°
2026-04-25 01:44 15.15890 -84.81505 34896 ft 477 kts 207°
2026-04-25 01:45 15.09888 -84.84331 34899 ft 477 kts 207°
2026-04-25 01:45 15.03844 -84.87164 34901 ft 477 kts 206°
2026-04-25 01:46 14.97806 -84.89998 34899 ft 477 kts 207°
2026-04-25 01:46 14.91773 -84.92844 34897 ft 476 kts 207°
2026-04-25 01:47 14.85752 -84.95678 34890 ft 476 kts 206°
2026-04-25 01:47 14.79718 -84.98501 34895 ft 476 kts 206°
2026-04-25 01:48 14.73689 -85.01322 34900 ft 475 kts 206°
2026-04-25 01:48 14.67712 -85.04140 34898 ft 475 kts 206°
2026-04-25 01:49 14.61692 -85.06964 34897 ft 475 kts 206°
2026-04-25 01:49 14.55655 -85.09783 34895 ft 476 kts 206°
2026-04-25 01:50 14.49631 -85.12600 34900 ft 476 kts 206°
2026-04-25 01:50 14.43593 -85.15423 34901 ft 476 kts 206°
2026-04-25 01:51 14.37559 -85.18243 34900 ft 476 kts 206°
2026-04-25 01:51 14.31569 -85.21041 34901 ft 476 kts 206°
2026-04-25 01:52 14.25535 -85.23863 34904 ft 476 kts 206°
2026-04-25 01:52 14.19506 -85.26681 34903 ft 476 kts 206°
2026-04-25 01:53 14.13471 -85.29484 34905 ft 476 kts 206°
2026-04-25 01:53 14.07438 -85.32296 34907 ft 475 kts 206°
2026-04-25 01:54 14.01456 -85.35091 34911 ft 475 kts 206°
2026-04-25 01:54 13.98442 -85.36498 34485 ft 474 kts 206°
2026-04-25 01:54 13.95498 -85.37865 34232 ft 457 kts 206°
2026-04-25 01:55 13.92601 -85.39208 34006 ft 458 kts 206°
2026-04-25 01:55 13.89690 -85.40557 33766 ft 458 kts 206°
2026-04-25 01:55 13.86787 -85.41906 33513 ft 459 kts 206°
2026-04-25 01:55 13.83878 -85.43263 33259 ft 459 kts 206°
2026-04-25 01:56 13.80964 -85.44621 33008 ft 460 kts 205°
2026-04-25 01:56 13.78049 -85.45982 32755 ft 460 kts 205°
2026-04-25 01:56 13.75135 -85.47342 32509 ft 459 kts 205°
2026-04-25 01:56 13.72229 -85.48696 32258 ft 458 kts 205°
2026-04-25 01:57 13.66443 -85.51382 31783 ft 455 kts 205°
2026-04-25 01:57 13.63566 -85.52714 31539 ft 453 kts 205°
2026-04-25 01:57 13.60734 -85.54025 31299 ft 452 kts 205°
2026-04-25 01:58 13.57876 -85.55351 31071 ft 450 kts 205°
2026-04-25 01:58 13.55028 -85.56673 30838 ft 449 kts 205°
2026-04-25 01:58 13.52186 -85.57992 30608 ft 447 kts 205°
2026-04-25 01:58 13.49357 -85.59303 30375 ft 446 kts 205°
2026-04-25 01:59 13.46535 -85.60609 30148 ft 444 kts 205°
2026-04-25 01:59 13.43725 -85.61910 29915 ft 442 kts 205°
2026-04-25 01:59 13.40924 -85.63208 29652 ft 440 kts 205°
2026-04-25 01:59 13.38136 -85.64501 29386 ft 439 kts 205°
2026-04-25 02:00 13.35360 -85.65788 29123 ft 437 kts 206°
2026-04-25 02:00 13.32587 -85.67075 28861 ft 436 kts 206°
2026-04-25 02:00 13.29828 -85.68355 28611 ft 435 kts 206°
2026-04-25 02:00 13.27113 -85.69612 28359 ft 434 kts 205°
2026-04-25 02:01 13.24364 -85.70882 28106 ft 432 kts 205°
2026-04-25 02:01 13.21630 -85.72144 27858 ft 431 kts 206°
2026-04-25 02:01 13.18897 -85.73410 27610 ft 430 kts 206°
2026-04-25 02:01 13.16176 -85.74669 27370 ft 429 kts 206°
2026-04-25 02:02 13.13462 -85.75921 27122 ft 428 kts 205°
2026-04-25 02:02 13.10748 -85.77170 26877 ft 427 kts 205°
2026-04-25 02:02 13.08045 -85.78415 26658 ft 425 kts 206°
2026-04-25 02:02 13.05487 -85.79882 26400 ft 420 kts 216°
2026-04-25 02:03 13.03115 -85.81623 26163 ft 419 kts 217°
2026-04-25 02:03 13.01541 -85.82782 26007 ft 418 kts 217°
2026-04-25 02:03 12.99194 -85.84497 25635 ft 413 kts 217°
2026-04-25 02:03 12.96862 -85.86191 25160 ft 408 kts 217°
2026-04-25 02:04 12.93813 -85.88400 24575 ft 403 kts 217°
2026-04-25 02:04 12.91533 -85.90054 24126 ft 401 kts 217°
2026-04-25 02:04 12.89264 -85.91708 23673 ft 400 kts 217°
2026-04-25 02:04 12.87000 -85.93360 23159 ft 399 kts 217°
2026-04-25 02:05 12.85477 -85.94472 22847 ft 396 kts 217°
2026-04-25 02:05 12.83271 -85.96079 22404 ft 393 kts 217°
2026-04-25 02:05 12.81051 -85.97694 21948 ft 390 kts 217°
2026-04-25 02:05 12.78853 -85.99295 21504 ft 387 kts 217°
2026-04-25 02:06 12.76669 -86.00885 21059 ft 384 kts 217°
2026-04-25 02:06 12.74500 -86.02461 20603 ft 381 kts 217°
2026-04-25 02:06 12.72345 -86.04028 20130 ft 379 kts 217°
2026-04-25 02:06 12.70198 -86.05589 19675 ft 377 kts 217°
2026-04-25 02:07 12.68061 -86.07139 19227 ft 376 kts 217°
2026-04-25 02:07 12.65931 -86.08685 18779 ft 375 kts 217°
2026-04-25 02:07 12.63807 -86.10227 18323 ft 373 kts 217°
2026-04-25 02:07 12.61695 -86.11764 17830 ft 372 kts 217°
2026-04-25 02:08 12.59594 -86.13293 17375 ft 369 kts 217°
2026-04-25 02:08 12.57511 -86.14805 16924 ft 366 kts 217°
2026-04-25 02:08 12.55439 -86.16307 16495 ft 363 kts 217°
2026-04-25 02:08 12.53420 -86.17772 16076 ft 359 kts 217°
2026-04-25 02:09 12.51413 -86.19226 15747 ft 347 kts 217°
2026-04-25 02:09 12.49456 -86.20645 15354 ft 345 kts 217°
2026-04-25 02:09 12.47506 -86.22061 14945 ft 343 kts 217°
2026-04-25 02:09 12.45562 -86.23474 14526 ft 342 kts 217°
2026-04-25 02:10 12.43625 -86.24884 14119 ft 341 kts 217°
2026-04-25 02:10 12.41693 -86.26291 13696 ft 341 kts 217°
2026-04-25 02:10 12.39764 -86.27694 13241 ft 340 kts 217°
2026-04-25 02:10 12.37845 -86.29086 12817 ft 338 kts 217°
2026-04-25 02:11 12.35933 -86.30470 12397 ft 336 kts 217°
2026-04-25 02:11 12.34034 -86.31845 12022 ft 331 kts 217°
2026-04-25 02:11 12.32246 -86.33201 11668 ft 311 kts 224°
2026-04-25 02:11 12.30946 -86.34859 11279 ft 300 kts 242°
2026-04-25 02:12 12.30203 -86.36840 11041 ft 298 kts 260°
2026-04-25 02:12 12.30084 -86.38933 10806 ft 295 kts 276°
2026-04-25 02:12 12.30312 -86.41014 10576 ft 295 kts 277°
2026-04-25 02:12 12.30544 -86.43095 10285 ft 294 kts 277°
2026-04-25 02:13 12.30778 -86.45171 9890 ft 294 kts 277°
2026-04-25 02:13 12.31011 -86.47247 9444 ft 295 kts 277°
2026-04-25 02:13 12.30964 -86.49309 9011 ft 289 kts 255°
2026-04-25 02:13 12.30025 -86.51094 8597 ft 287 kts 226°
2026-04-25 02:14 12.28371 -86.52205 8169 ft 287 kts 198°
2026-04-25 02:14 12.26418 -86.52477 7750 ft 289 kts 184°
2026-04-25 02:14 12.24419 -86.52641 7321 ft 289 kts 187°
2026-04-25 02:14 12.22422 -86.52875 6887 ft 286 kts 187°
2026-04-25 02:15 12.20461 -86.52797 6463 ft 283 kts 163°
2026-04-25 02:15 12.18788 -86.51784 6028 ft 284 kts 132°
2026-04-25 02:15 12.17862 -86.50032 5612 ft 282 kts 102°
2026-04-25 02:15 12.17606 -86.48079 5196 ft 271 kts 96°
2026-04-25 02:16 12.17412 -86.46212 4824 ft 257 kts 96°
2026-04-25 02:16 12.17228 -86.44431 4493 ft 249 kts 96°
2026-04-25 02:16 12.17040 -86.42721 4138 ft 235 kts 97°
2026-04-25 02:16 12.16861 -86.41114 3860 ft 228 kts 97°
2026-04-25 02:17 12.16682 -86.39500 3563 ft 224 kts 97°
2026-04-25 02:17 12.16510 -86.37945 3272 ft 221 kts 97°
2026-04-25 02:17 12.16337 -86.36390 2990 ft 219 kts 97°
2026-04-25 02:17 12.16166 -86.34853 2805 ft 217 kts 97°
2026-04-25 02:18 12.16000 -86.33359 2642 ft 202 kts 97°
2026-04-25 02:18 12.15851 -86.32015 2539 ft 181 kts 97°
2026-04-25 02:18 12.15713 -86.30775 2492 ft 173 kts 97°
2026-04-25 02:18 12.15579 -86.29568 2377 ft 170 kts 97°
2026-04-25 02:19 12.15446 -86.28381 2163 ft 167 kts 97°
2026-04-25 02:19 12.15316 -86.27213 1957 ft 162 kts 97°
2026-04-25 02:19 12.15192 -86.26099 1742 ft 158 kts 97°
2026-04-25 02:19 12.15069 -86.24990 1537 ft 156 kts 97°
2026-04-25 02:20 12.14946 -86.23891 1341 ft 156 kts 97°
2026-04-25 02:20 12.14824 -86.22797 1154 ft 155 kts 97°
2026-04-25 02:20 12.14704 -86.21710 955 ft 154 kts 97°
2026-04-25 02:20 12.14583 -86.20629 754 ft 152 kts 98°
2026-04-25 02:21 12.14464 -86.19557 546 ft 152 kts 97°
2026-04-25 02:21 12.14348 -86.18488 359 ft 151 kts 98°
2026-04-25 02:21 12.14227 -86.17428 220 ft 146 kts 96°
2026-04-25 02:21 12.14128 -86.16512 200 ft 101 kts 98°
2026-04-25 02:22 12.14077 -86.16078 202 ft 40 kts 96°
2026-04-25 02:22 12.14035 -86.15904 210 ft 21 kts 112°
2026-04-25 02:22 12.14044 -86.15815 215 ft 4 kts 347°
2026-04-25 02:22 12.14049 -86.15838 204 ft 6 kts 278°
2026-04-25 02:23 12.14065 -86.15978 201 ft 27 kts 276°
2026-04-25 02:23 12.14084 -86.16142 202 ft 23 kts 275°
2026-04-25 02:23 12.14100 -86.16298 204 ft 22 kts 276°
2026-04-25 02:23 12.14117 -86.16454 210 ft 22 kts 277°
2026-04-25 02:24 12.14150 -86.16595 194 ft 15 kts 325°
2026-04-25 02:24 12.14223 -86.16615 204 ft 10 kts 331°
2026-04-25 02:24 12.14274 -86.16655 213 ft 8 kts 298°
2026-04-25 02:24 12.14284 -86.16711 200 ft 8 kts 275°
2026-04-25 02:25 12.14288 -86.16763 200 ft 7 kts 275°
2026-04-25 02:25 12.14291 -86.16810 211 ft 6 kts 275°
2026-04-25 02:25 12.14295 -86.16851 205 ft 5 kts 276°
2026-04-25 02:25 12.14300 -86.16895 200 ft 12 kts 277°
2026-04-25 02:26 12.14319 -86.17008 200 ft 11 kts 296°
2026-04-25 02:26 12.14357 -86.17013 206 ft 4 kts 10°
2026-04-25 02:26 12.14381 -86.17009 200 ft 3 kts
2026-04-25 02:26 12.14391 -86.17008 211 ft 0 kts